TimeMST,TemperatureF,Dew PointF,Humidity,Sea Level PressureIn,VisibilityMPH,Wind Direction,Wind SpeedMPH,Gust SpeedMPH,PrecipitationIn,Events,Conditions,WindDirDegrees,DateUTC
12:53 AM,16.0,3.0,57,30.48,10.0,NE,6.9,-,N/A,,Clear,50,2014-01-06 07:53:00
1:53 AM,14.0,3.9,64,30.49,10.0,NNE,5.8,-,N/A,,Clear,20,2014-01-06 08:53:00
2:53 AM,10.9,3.9,73,30.51,10.0,NE,3.5,-,N/A,,Clear,50,2014-01-06 09:53:00
3:53 AM,12.9,1.9,62,30.51,10.0,Calm,Calm,-,N/A,,Clear,0,2014-01-06 10:53:00
4:53 AM,12.9,3.0,65,30.53,10.0,ESE,5.8,-,N/A,,Clear,120,2014-01-06 11:53:00
5:53 AM,12.9,3.9,67,30.53,10.0,SE,4.6,-,N/A,,Clear,140,2014-01-06 12:53:00
6:53 AM,12.9,3.0,65,30.53,10.0,East,4.6,-,N/A,,Clear,90,2014-01-06 13:53:00
7:53 AM,14.0,1.9,59,30.57,10.0,ENE,4.6,-,N/A,,Clear,60,2014-01-06 14:53:00
8:53 AM,19.9,6.1,55,30.56,10.0,East,3.5,-,N/A,,Clear,90,2014-01-06 15:53:00
9:53 AM,23.0,5.0,46,30.57,10.0,Calm,Calm,-,N/A,,Clear,0,2014-01-06 16:53:00
10:53 AM,27.0,3.9,37,30.56,10.0,Calm,Calm,-,N/A,,Clear,0,2014-01-06 17:53:00
11:53 AM,30.9,1.9,29,30.52,10.0,Calm,Calm,-,N/A,,Clear,0,2014-01-06 18:53:00
12:53 PM,33.1,3.9,29,30.47,10.0,NW,3.5,-,N/A,,Clear,320,2014-01-06 19:53:00
1:53 PM,35.1,3.9,27,30.43,10.0,Calm,Calm,-,N/A,,Clear,0,2014-01-06 20:53:00
2:53 PM,37.9,7.0,28,30.42,10.0,West,3.5,-,N/A,,Clear,260,2014-01-06 21:53:00
3:53 PM,37.9,7.0,28,30.40,10.0,WSW,3.5,-,N/A,,Clear,250,2014-01-06 22:53:00
4:53 PM,36.0,6.1,29,30.39,10.0,SSW,3.5,-,N/A,,Clear,210,2014-01-06 23:53:00
5:53 PM,30.9,8.1,38,30.43,10.0,South,3.5,-,N/A,,Clear,190,2014-01-07 00:53:00
6:53 PM,28.9,12.0,49,30.44,10.0,SSE,5.8,-,N/A,,Clear,150,2014-01-07 01:53:00
7:53 PM,28.0,12.0,51,30.43,10.0,SSE,5.8,-,N/A,,Clear,150,2014-01-07 02:53:00
8:53 PM,26.1,12.0,55,30.39,10.0,South,4.6,-,N/A,,Clear,170,2014-01-07 03:53:00
9:53 PM,24.1,10.9,57,30.37,10.0,NE,8.1,-,N/A,,Clear,50,2014-01-07 04:53:00
10:53 PM,21.9,12.9,68,30.36,10.0,East,3.5,-,N/A,,Clear,100,2014-01-07 05:53:00
11:53 PM,19.9,12.0,71,30.34,10.0,SSW,3.5,-,N/A,,Clear,210,2014-01-07 06:53:00